Flag for U.S.A. Weather past 2 weeks in Tulsa, Oklahoma, U.S.A.

Now
78 °F

Partly sunny.


Feels Like: 80 °F
Forecast: 76 / 95 °F
Wind: 13 mph from Southeast

Location: Tulsa International Airport

Current Time: Sep 2, 2014 at 7:55:50 PM

Latest Report: Sep 2, 2014 at 6:53 PM


Visibility: 10 mi

Pressure: 29.90 "Hg

Humidity: 71%

Dew point: 68 °F

Location of TulsaLocation

Historic Weather in Tulsa — Graph

°F

Tulsa temperature yesterday

Maximum temperature yesterday: 96 °F (at 3:53 PM)
Minimum temperature yesterday: 68 °F (at 6:53 AM)
Average temperature yesterday: 83 °F

Past Weeks' High & Low Weather Summary

 TemperatureHumidityPressure
High101 °F (Aug 22, 2:53 PM)100% (Sep 2, 9:00 AM)30.07 "Hg (Sep 2, 9:00 AM)
Low68 °F (Sep 1, 6:53 AM)26% (Aug 23, 2:53 PM)29.72 "Hg (Aug 31, 7:53 PM)
Average85 °F59%29.88 "Hg
* Reported Aug 18 6:53 PM — Sep 2 6:53 PM, Tulsa, Weather by CustomWeather, © 2014

Note: Actual official high and low records may vary slightly from our data, if they occured in-between our weather recording intervals... More about our weather records

Advertising

Tulsa weather history for previous 24 hours

 ConditionsComfort  
Time TempWeatherWind HumidityBarometerVisibility
6:53 PM
Sep 2
78 °FPartly sunny.13 mph71%29.90 "Hg10 mi
5:53 PM80 °FBroken clouds.8 mph64%29.90 "Hg10 mi
4:53 PM79 °FPartly sunny.6 mph67%29.90 "Hg10 mi
3:53 PM77 °FPartly sunny.N/A71%29.91 "Hg10 mi
2:53 PM74 °FPartly sunny.8 mph79%29.94 "Hg10 mi
1:53 PM73 °FBroken clouds.7 mph81%29.96 "Hg10 mi
12:53 PM70 °FMore clouds than sun.12 mph90%29.99 "Hg10 mi
11:53 AM69 °FCloudy.8 mph93%29.98 "Hg10 mi
10:53 AM70 °FThundershowers. Cloudy.9 mph90%30.01 "Hg10 mi
9:59 AM70 °FThunderstorms. More clouds than sun.10 mph93%29.97 "Hg10 mi
9:00 AM68 °FThundershowers. Fog.8 mph100%29.99 "Hg6 mi
8:00 AM68 °FStrong thunderstorms. Fog.10 mph96%30.02 "Hg1 mi
6:53 AM75 °FMostly cloudy.14 mph71%29.94 "Hg10 mi
5:53 AM76 °FOvercast.14 mph69%29.90 "Hg10 mi
4:53 AM79 °FMostly cloudy.12 mph72%29.86 "Hg10 mi
3:53 AM80 °FMostly cloudy.6 mph69%29.84 "Hg10 mi
2:53 AM82 °FOvercast.3 mph65%29.81 "Hg10 mi
1:53 AM83 °FOvercast.9 mph61%29.81 "Hg10 mi
12:53 AM84 °FOvercast.9 mph61%29.80 "Hg10 mi
11:53 PM
Sep 1
82 °FMostly cloudy.10 mph63%29.82 "Hg10 mi
10:53 PM86 °FMostly cloudy.12 mph59%29.83 "Hg10 mi
9:53 PM87 °FPassing clouds.13 mph57%29.82 "Hg10 mi
8:53 PM88 °FPassing clouds.16 mph55%29.77 "Hg10 mi
7:53 PM90 °FPartly sunny.16 mph54%29.74 "Hg10 mi
Weather by CustomWeather, © 2014

See weather overviewHow to use our weather pages